Погода в Волгограде

Погода в Волгограде : погода сейчас, прогноз погоды и архив. Всё, что Вы хотите узнать о погоде в Волгограде!

Хотите узнать прогноз погоды в Волгограде? Тогда Вам сюда: Погода в Волгограде

Поиск расширенной информации на нашем сайте:

Другие новости

Новости СМИ2

Главная страница сайта

Новости сайта

02.10.2013

Напоминаем, что на нашем новом сайте вы можете получить высокодетализированные прогнозы погоды по пунктам России, СНГ и мира (включающие важные для авиации метеовеличины, такие как направление и скорость ветра, видимость, явления погоды, количество и форма облачности, нижняя и верхняя граница облачности), а также ознакомиться с разнообразными материалами по авиационной метеорологии и подборкой полезных ссылок на эту тему.

Сайт Метеоцентр.Азия посвящён разработке технологий оптимизации авиаметеорологического обслуживания, включая проектирование и перспективное создание нескольких автоматизированных авиаметеорологических систем:
- система выпуска высокодетальных прогностических карт явлений погоды для нижнего воздушного пространства по России и ближнему зарубежью;
- система верификации прогнозов TAF (выпускаемых синоптиками официальных АМСГ РФ и ближнего зарубежья) и AUTOTAF (выпускаемых сайтом Метеоцентр.Азия) - выявление ошибок, онлайн-сопоставление с фактической погодой METAR, автоматическое внесение коррективов в прогнозы при резком отклонении фактической погоды от прогноза, подсчёт оправдываемости прогнозов по элементам и в целом;
- система обработки, анализа и отображения авиаметеорологической информации для применения провайдерами метеорологической информации.


Погода в Волгограде - сегодня

Время (UTC), дата Ветер
(°,м/с) 
Видим.   Явления Облачность Т
(°С)
Тd
(°С)
f(%) Тe
(°С)
Pmin
(гПа)
dP
(гПа)
Po
(мм)
O2
(г/м3)
Тmin Tmax R s Состояние
почвы
09 25.05.17 160 (Ю) 10 км    8/0 средняя 
[Ac trans]
+19.9 +6.1 41 +21  1019.4  -0.2  751  281           
12 25.05.17 160 (Ю) 10 км    9/5 1000 м верхняя 
[Cu hum|Ci fib]
+20.7 +4.6 35 +21  1018.4  -0.9  750  280           
15 25.05.17 140 (ЮВ) 5{11}  10 км    9/0 средняя 
[Ac trans]
+19.4 +4.4 37 +20  1017.9  -0.6  750  281    +21.4       
18 25.05.17 200 (Ю) 2{11}  10 км    5/0 средняя 
[Ac trans]
+15.9 +4.8 48 +17  1018.4  0.3  750  285           
21 25.05.17 200 (Ю) 10 км    5/0 средняя 
[Ac trans]
+13.6 +3.8 51 +15  1017.9  -0.6  750  287           
00 26.05.17 280 (З) 10 км    5/0 средняя 
[Ac trans]
+13 +5.4 60 +13  1017.3  -0.7  749  287           
03 26.05.17 290 (З) 10 км    4/0 средняя 
[Ac trans]
+12.6 +8.7 77 +13  1017.2  -0.1  749  287  +10.6         
06 26.05.17 330 (СЗ) 10 км    8/0 средняя, верхняя 
[Ac trans|Ci fib]
+19.7 +9.5 52 +22  1016.4  -0.3  749  280           
09 26.05.17 280 (З) 10 км    8/8 1000 м 
[Cu med, cong]
+22.1 +7.7 39 +22  1015.5  -0.8  748  278           
12 26.05.17 250 (З) 5{12}  10 км    8/0 средняя 
[Ac trans]
+24 +5.2 30 +24  1013.5  -1.7  747  276           
15 26.05.17 270 (З) 10 км    6/0 средняя 
[Ac trans]
+22.7 +5.3 32 +23  1012.6  -1  746  277    +24.7       
18 26.05.17 270 (З) 10 км    3/0 средняя 
[Ac trans]
+16.3 +7.3 55 +17  1013.5  0.4  746  283           
21 26.05.17 270 (З) 10 км    ясно 
+13.8 +8.1 68 +14  1012.9  -0.7  746  285           
00 27.05.17 290 (З) 10 км    ясно 
+12.1 +7 71 +12  1012.6  -0.4  746  287           
03 27.05.17 260 (З) 10 км    3/0 средняя 
[Ac trans]
+14.2 +9.1 71 +15  1012.6  0.1  746  284  +10.4         
06 27.05.17 280 (З) 10 км    ясно 
+21.5 +8.2 42 +22  1011.8  -0.3  746  277           
09 27.05.17 260 (З) 10 км    6/6 1500 м 
[Cu hum]
+22.7 +6.9 36 +23  1011.3  -0.4  745  276           
18 27.05.17 020 (С) 3{10}  10 км    5/0 средняя 
[Ac trans]
+17.8 +11.6 67 +21  1011.1  1.1  745  280           
21 27.05.17 320 (СЗ) 10 км    5/0 средняя 
[Ac trans]
+14.3 +10.7 79 +16  1011.8  0.4  745  283           
00 28.05.17 310 (СЗ) 10 км    6/0 средняя 
[Ac trans]
+12.5 +10.7 89 +14  1012.1  0.1  745  285           
03 28.05.17 010 (С) 10 км    9/5 1500 м кучево-дожд., средняя 
[Cb calv|Ac trans]
+13.8 +11.6 87 +16  1012.8  0.8  746  284  +12.1         
06 28.05.17 360 (С) 10 км    8/0 средняя 
[Ac trans]
+17.5 +8.5 55 +17  1013.4  0.7  746  281           
09 28.05.17 340 (С) 10 км    4/4 1000 м 
[Cu hum]
+19.1 +5.9 42 +19  1013  -0.3  746  280           
18 28.05.17 270 (З) 3{12}  10 км    8/8 1500 м 
[Sc]
+16.2 +5.4 49 +17  1013.4  0.5  746  283           
03 29.05.17 030 (СВ) 10 км    4/0 верхняя 
[Ci fib]
+6.3 +0.4 66 +4  1021.5  1.5  752  296  +5.2         
Время (UTC), дата Ветер
(°,м/с) 
Видим.   Явления Облачность Т
(°С)
Тd
(°С)
f(%) Тe
(°С)
Pmin
(гПа)
dP
(гПа)
Po
(мм)
O2
(г/м3)
Тmin Tmax R s Состояние
почвы

Для получения пояснительной информации подведите курсор к названию столбца.

ПОГОДА в Волгограде - архив

Всё, что Вы хотите узнать о погоде в Волгограде - удобно и подробно!

Выберите нужную дату (начиная с 1 января 2015* года) и нажмите кнопку "Найти".
Будут отображены архивные сводки погоды по пункту Волгоград, начиная с указанной даты.


Отображать данные в формате CSV (для использования в таблицах Excel)


Внимание! Наш архив погоды предназначен исключительно для личного некоммерческого использования в познавательных целях. Если Вам необходимы официальные справки о состоянии погоды (для производственных, юридических, коммерческих и т.п. целей), обращайтесь в органы Росгидромета.

*Примечание: данная дата относится к архиву по метеостанциям СССР (Россия, СНГ, Балтия).
Архив по метеостанциям Зарубежной Европы и Азии (кроме Китая) хранится 10 дней, по другим регионам земного шара (Китай, Африка, Америка, Австралия, Океания) - 1 день.

Волгоград - район местоположения метеостанции


Название, широта, долгота, высота метеостанции:
Волгоград (Гумрак) 48.8°ш. 44.4°д. 134 м над ур. моря [Российская Федерация]

Дополнительная информация

В oтличие oт бoльшинства пoгoдных сайтoв мы публикуем пoдрoбную метеoинфoрмацию в детальнoм прoфессиoнальнoм фoрмате.

Характеристики температуры и влажнoсти вoздуха измеряются на высoте 2 м в тени вдали oт зданий и деревьев.
Скoрoсть ветра измеряется на высoте 10 м (на урoвне рoста челoвека скoрoсть ветра ниже в 1.5-2 раза). Если метеoстанция нахoдится в гoрoде или в лесу, тo скoрoсть ветра занижена на 2-4 м/с пo сравнению с oткрытым местoм. Скoрoсть ветра над акватoриями крупных рек и oзёр, а также на вершинах хoлмoв на 2-5 м/с выше, чем в oбычных услoвиях.
Атмoсфернoе давление в разных тoчках местнoсти мoжет значительнo oтличаться oт давления на метеoстанции, в зависимoсти oт услoвий рельефа (при пoдъёме на 10 м давление пoнижается примернo на 1 мм рт.ст.).